sat.trackr.live / text

‹ back to catalog

2023-085L

NORAD 57014 · 2023-085L

PAYLOAD ACTIVE UNKNOWN

§ Identity

Operator
Country
PRC
Launch date
2023-06-15
Launch site
TAISC
Launch vehicle
Mass (kg)
RCS (m²)

External: N2YO · Heavens-Above · Gunter

§ Orbital elements

Epoch: 2026-09-21T21:22:03.999648Z

Period
93.88 min
Inclination
97.5028°
Eccentricity
0.0005403
Mean motion
15.33879747 rev/d
Perigee alt
460.6 km
Apogee alt
467.9 km
Semi-major
6,842.4 km
B*
2.9142e-4
RAAN
16.9929°
Arg perigee
69.7275°
Mean anomaly
290.4548°
Rev number
18,143

§ Raw data

2023-085L1 57014U 23085L   26264.89032407  .00009475  00000+0  29142-3 0  99932 57014  97.5028  16.9929 0005403  69.7275 290.4548 15.33879747181437

JSON: /api/v1/satellites/57014 · /tle

For live sub-satellite position, see the globe view (requires WebGL).

§ Visibility from observer

Set your observer location to see the next 7 days of passes ≥ 10°. The values pass through the URL so the page stays shareable.

No JS? Fill the form by hand. The geolocation button needs JavaScript.